Regional Weather Roundup
Issued by NWS

Home | Current Version | Previous Version | Graphics & Text | Print | Product List | Glossary On
Versions: 1 2 3 4 5 6 7 8 9 10 11 12 13 14 15 16 17 18 19 20 21 22 23 24 25 26 27 28 29 30 31 32 33 34 35 36 37 38 39 40 41 42 43 44 45 46 47 48 49 50
398
ASUS44 KMEG 202300
RWRTN
TENNESSEE HOURLY STATE WEATHER ROUNDUP
NATIONAL WEATHER SERVICE MEMPHIS TN
500 PM CST MON FEB 20 2017

TNZ002-004-019-021-049-052-054-088>092-210000-
WEST TENNESSEE

CITY           SKY/WX    TMP DP  RH WIND       PRES   REMARKS
MEMPHIS INTL   PTCLDY    75  51  43 S8        29.97F
NWS MEMPHIS      N/A     78 N/A N/A MISG        N/A
JACKSON        CLOUDY    75  53  46 SE5       30.01S
UNION CITY     CLEAR     72  45  37 CALM      30.00S
PARIS          CLEAR     68  52  56 SE5       30.03S
$$

TNZ008-025-027-028-033-062-065-066-210000-
NORTH MIDDLE TENNESSEE

CITY           SKY/WX    TMP DP  RH WIND       PRES   REMARKS
NASHVILLE      MOCLDY    71  43  36 S7        30.06F
CLARKSVILLE    MOCLDY    67  50  54 SE5       30.04S
SMYRNA         PTCLDY    71  46  40 S3        30.07S
CROSSVILLE     CLOUDY    64  44  48 S5        30.13S
$$

TNZ061-075-076-078-094-096-097-210000-
SOUTH MIDDLE TENNESSEE

CITY           SKY/WX    TMP DP  RH WIND       PRES   REMARKS
TULLAHOMA      CLEAR     70  39  32 SE6       30.09F
MCMINNVILLE    CLEAR     72  46  40 SW3       30.09S
COLUMBIA       CLEAR     72  48  43 SE6       30.04S
SHELBYVILLE    CLEAR     72  45  37 CALM      30.08S
$$

TNZ017-018-042-046-047-210000-
NORTHEAST TENNESSEE

CITY           SKY/WX    TMP DP  RH WIND       PRES   REMARKS
TRI CITIES     CLOUDY    65  36  34 SW3       30.13F
$$

TNZ012-013-036-069-073-074-210000-
CENTRAL EAST TENNESSEE

CITY           SKY/WX    TMP DP  RH WIND       PRES   REMARKS
KNOXVILLE      CLOUDY    65  44  46 CALM      30.11S
OAK RIDGE      PTCLDY    65  44  46 CALM      30.13R
GATLINBURG     CLEAR     64  39  39 CALM      30.11S
$$

TNZ083-085-099-210000-
SOUTHEAST TENNESSEE

CITY           SKY/WX    TMP DP  RH WIND       PRES   REMARKS
CHATTANOOGA    CLOUDY    69  48  47 N3        30.10F
$$

SKY/WX REPORTED AS FAIR MEANS FEW OR NO CLOUDS BELOW
12 THOUSAND FEET.





USA.gov is the U.S. government's official web portal to all federal, state and local government web resources and services.